Tracking 25995 objects as of 20-Aug-2022
HD Live streaming from Space Station
objects crossing your sky now

IUE

Track IUE now!
IUE is classified as:


NORAD ID: 10637
Int'l Code: 1978-012A
Perigee: 29,052.5 km
Apogee: 42,651.5 km
Inclination: 39.8 °
Period: 1,439.1 minutes
Semi major axis: 42222 km
RCS: 5.9851 m2 (large)
Launch date: January 26, 1978
Source: United States (US)
Launch site: AIR FORCE EASTERN TEST RANGE (AFETR)

The International Ultraviolet Explorer (IUE, formerly SAS-D) satellite was a spaceborne ultraviolet astronomical observatory for use as an international facility. IUE was shut down at 18:42 UT, 30 September 1996.
aabbcc
Your satellite tracking list
Your tracking list is empty




NASA's NSSDC Master Catalog

Two Line Element Set (TLE):
1 10637U 78012A   22230.59706134 -.00000319  00000-0  00000-0 0  9993
2 10637  39.8231 309.1583 1610378 241.6289 101.8512  1.00064465115081
Source of the keplerian elements: AFSPC